Regional Weather Roundup
Issued by NWS

Home | Current Version | Previous Version | Graphics & Text | Print | Product List | Glossary Off
Versions: 1 2 3 4 5 6 7 8 9 10 11 12 13 14 15 16 17 18 19 20 21 22 23 24 25 26 27 28 29 30 31 32 33 34 35 36 37 38 39 40 41 42 43 44 45 46 47 48 49 50

000
ASUS43 KTOP 032008
RWRKS

WEATHER ROUNDUP FOR KANSAS
NATIONAL WEATHER SERVICE GOODLAND KS
200 PM CST TUE MAR 03 2015

NOTE:  "FAIR" INDICATES FEW OR NO CLOUDS BELOW 12,000 FEET WITH NO
SIGNIFICANT WEATHER AND/OR OBSTRUCTIONS TO VISIBILITY.

KSZ001>006-013>018-027>032-041>047-032100-
NORTHWEST KANSAS

CITY           SKY/WX    TMP DP  RH WIND       PRES   REMARKS
GOODLAND       CLOUDY    28  15  58 N17G26    29.92R WCI  16
HAYS           FAIR      39  19  45 N17G26    29.89R WCI  30
HILL CITY      FAIR      39  17  41 N18       29.92F WCI  30
RUSSELL        CLOUDY    40  25  55 N21G26    29.87  WCI  30
$$

KSZ061>065-074>080-084>089-032100-
SOUTHWEST KANSAS

CITY           SKY/WX    TMP DP  RH WIND       PRES   REMARKS
DODGE CITY     FAIR      41  28  60 N21G29    29.87
ELKHART          N/A     39  30  70 NE16        N/A  WCI  30
GARDEN CITY    CLOUDY    36  28  73 NE15      29.87R WCI  27
GREAT BEND     FAIR      43  27  52 N15       29.88R
LIBERAL        FAIR      41  34  75 NE15      29.85F
PRATT          FAIR      43  28  56 N18       29.86S
$$

KSZ066>073-081>083-090>101-032100-
SOUTHEAST KANSAS

CITY           SKY/WX    TMP DP  RH WIND       PRES   REMARKS
CHANUTE        CLOUDY    49  41  74 W10       29.80
COFFEYVILLE    PTSUNNY   53  41  63 W12       29.82F
HUTCHINSON     FAIR      46  27  47 N13G23    29.84
MEDICINE LODGE   N/A     46  31  55 N17       29.83R
NEWTON         FAIR      45  28  53 N15       29.84F
PARSONS        CLOUDY    51  42  71 W8        29.82F
WICHITA INTL   CLOUDY    47  33  58 N17G24    29.81
WICHITA JABRA  FAIR      47  33  58 N21       29.80
WICHITA MCCONL FAIR      48  35  60 N16       29.81S
WINFIELD       FAIR      48  40  73 W5        29.83
$$

KSZ007>012-019>026-033>040-048>060-102>105-032100-
NORTHEAST KANSAS

CITY           SKY/WX    TMP DP  RH WIND       PRES   REMARKS
CONCORDIA      FAIR      38  22  52 N20G26    29.88  WCI  28
EMPORIA        PTSUNNY   46  35  65 NW15      29.81R
LAWRENCE       CLOUDY    44  32  62 NW13      29.82
MANHATTAN      FAIR      45  27  49 N13G21    29.85
MARYSVILLE     PTSUNNY   39  28  65 N22       29.85S WCI  29
OLATHE IND     CLOUDY    45  36  70 NW16      29.80
OLATHE EXE     CLOUDY    46  36  68 NW15      29.78
SALINA         FAIR      46  26  45 N20       29.86
TOPEKA BILLARD PTSUNNY   46  30  53 NW17G25   29.83
TOPEKA FORBES  PTSUNNY   46  31  55 NW15G26   29.82
$$


USA.gov is the U.S. government's official web portal to all federal, state and local government web resources and services.